This is the latest recevied weather packets stored in our database for station/object KC5DAQ-27. If no packets are shown the sender has not sent any weather packets the latest 1 day(s).
| Time | Temp. | Humidity | Pressure | Rain* | Wind** | Luminosity | Snow |
|---|---|---|---|---|---|---|---|
| 1778036687 | 25.56° C | 88% | 999.9 hPa | 0 mm | 3.58 m/s, 182° | 0 W/m² | - |
| 1778036627 | 25.56° C | 88% | 999.9 hPa | 0 mm | 3.13 m/s, 188° | 0 W/m² | - |
| 1778036568 | 25.56° C | 88% | 999.8 hPa | 0 mm | 3.58 m/s, 165° | 0 W/m² | - |
| 1778036507 | 25.56° C | 88% | 999.7 hPa | 0 mm | 3.13 m/s, 178° | 0 W/m² | - |
| 1778036447 | 25.56° C | 88% | 999.8 hPa | 0 mm | 3.13 m/s, 176° | 0 W/m² | - |
| 1778036388 | 25.56° C | 88% | 999.8 hPa | 0 mm | 3.13 m/s, 180° | 0 W/m² | - |
| 1778036327 | 25.56° C | 88% | 999.9 hPa | 0 mm | 3.13 m/s, 197° | 0 W/m² | - |
| 1778036267 | 25.56° C | 88% | 999.8 hPa | 0 mm | 3.13 m/s, 179° | 0 W/m² | - |
| 1778036206 | 25.56° C | 88% | 999.8 hPa | 0 mm | 3.13 m/s, 183° | 0 W/m² | - |
| 1778036148 | 25.56° C | 88% | 999.7 hPa | 0 mm | 3.58 m/s, 189° | 0 W/m² | - |
| 1778036087 | 25.56° C | 88% | 999.8 hPa | 0 mm | 4.02 m/s, 193° | 0 W/m² | - |
| 1778036026 | 25.56° C | 88% | 999.7 hPa | 0 mm | 4.02 m/s, 180° | 0 W/m² | - |
| 1778035967 | 25.56° C | 88% | 999.7 hPa | 0 mm | 4.02 m/s, 173° | 0 W/m² | - |
| 1778035908 | 25.56° C | 88% | 999.7 hPa | 0 mm | 3.58 m/s, 166° | 0 W/m² | - |
| 1778035846 | 25.56° C | 88% | 999.7 hPa | 0 mm | 3.58 m/s, 185° | 0 W/m² | - |
| 1778035787 | 25.56° C | 88% | 999.7 hPa | 0 mm | 4.02 m/s, 176° | 0 W/m² | - |
| 1778035728 | 25.56° C | 88% | 999.7 hPa | 0 mm | 4.02 m/s, 192° | 0 W/m² | - |
| 1778035666 | 25.56° C | 88% | 999.6 hPa | 0 mm | 3.58 m/s, 188° | 0 W/m² | - |
| 1778035606 | 25.56° C | 88% | 999.6 hPa | 0 mm | 3.58 m/s, 195° | 0 W/m² | - |
| 1778035547 | 25.56° C | 88% | 999.7 hPa | 0 mm | 3.58 m/s, 196° | 0 W/m² | - |
| 1778035487 | 25.56° C | 88% | 999.6 hPa | 0 mm | 3.58 m/s, 213° | 0 W/m² | - |
| 1778035426 | 25.56° C | 88% | 999.7 hPa | 0 mm | 3.13 m/s, 196° | 0 W/m² | - |
| 1778035367 | 25.56° C | 87% | 999.7 hPa | 0 mm | 3.13 m/s, 180° | 0 W/m² | - |
| 1778035307 | 25.56° C | 87% | 999.7 hPa | 0 mm | 3.13 m/s, 186° | 0 W/m² | - |
| 1778035246 | 25.56° C | 87% | 999.7 hPa | 0 mm | 2.68 m/s, 196° | 0 W/m² | - |
* Rain latest hour (hover to see other rain measurements)
** Current wind speed in m/s (hover to see current wind gust speed)